Weather History for Lander, WY

Change the Weather History Date:

Friday, March 15, 2013

  Actual Average Record
Temperature  
Mean Temperature 52 °F 36 °F  
Max Temperature 68 °F 47 °F 68 °F (2013)
Min Temperature 35 °F 24 °F -10 °F (1906)
Degree Days  
Heating Degree Days 13 30  
Month to date heating degree days 412 482  
Since 1 July heating degree days 5781 6186  
Cooling Degree Days 0 0  
Month to date cooling degree days 0 0  
Year to date cooling degree days 0 0  
Growing Degree Days 4 (Base 50)    
Moisture  
Dew Point 20 °F    
Average Humidity 31    
Maximum Humidity 45    
Minimum Humidity 17    
Precipitation  
Precipitation 0.00 in 0.04 in 0.76 in (1924)
Month to date precipitation T 0.46  
Year to date precipitation 1.98 1.45  
Snow  
Snow 0.00 in 0.50 in - ()
Month to date snowfall T 6.7  
Since 1 July snowfall 52.2 60.3  
Snow Depth 0.00 in    
Sea Level Pressure  
Sea Level Pressure 29.87 in    
Wind  
Wind Speed 8 mph (West)    
Max Wind Speed 22 mph    
Max Gust Speed 30 mph    
Visibility 10 miles    
Events      
T = Trace of Precipitation, MM = Missing Value Source: NWS Daily Summary

Daily Weather History Graph

Daily Weather History Graph

Search for Another Location

Airport:

Trip Planner

Search our weather history database for the weather conditions in past years. The results will help you decide how hot, cold, wet, or windy it might be!

Date:

Astronomy

Mar. 15, 2013 Rise Set
Actual Time 7:26 AM MDT 7:21 PM MDT
Civil Twilight 6:58 AM MDT 7:49 PM MDT
Nautical Twilight 6:25 AM MDT 8:22 PM MDT
Astronomical Twilight 5:51 AM MDT 8:56 PM MDT
Moon 9:12 AM MDT (3/15) 11:45 PM MDT (3/15)
Length of Visible Light 12h 51m
Length of Day
11h 55m
Waxing Crescent, 16% of the Moon is Illuminated
Mar 15
Waxing Crescent
Mar 19
First Quarter
Mar 27
Full
Apr 2
Last Quarter
Apr 10
New

Hourly Weather History & Observations

Time (MDT) Temp. Windchill Dew Point Humidity Pressure Visibility Wind Dir Wind Speed Gust Speed Precip Events Conditions
12:53 AM 52.0 °F - 16.0 °F 24% 29.94 in 10.0 mi WSW 10.4 mph - N/A   Clear
1:53 AM 48.9 °F - 18.0 °F 29% 29.92 in 10.0 mi West 6.9 mph - N/A   Clear
2:53 AM 46.9 °F - 19.0 °F 33% 29.90 in 10.0 mi Calm Calm - N/A   Clear
3:53 AM 43.0 °F 41.3 °F 19.9 °F 40% 29.91 in 10.0 mi WNW 3.5 mph - N/A   Clear
4:53 AM 44.1 °F 40.1 °F 19.0 °F 37% 29.88 in 10.0 mi SSW 6.9 mph - N/A   Clear
5:53 AM 45.0 °F 43.5 °F 19.0 °F 36% 29.89 in 10.0 mi Variable 3.5 mph - N/A   Clear
6:53 AM 41.0 °F 34.3 °F 19.9 °F 43% 29.91 in 10.0 mi SW 11.5 mph - N/A   Clear
7:53 AM 46.0 °F 43.1 °F 18.0 °F 33% 29.90 in 10.0 mi SE 5.8 mph - N/A   Clear
8:53 AM 42.1 °F 37.7 °F 23.0 °F 47% 29.93 in 10.0 mi SW 6.9 mph - N/A   Clear
9:53 AM 51.1 °F - 21.9 °F 32% 29.89 in 10.0 mi Variable 3.5 mph - N/A   Clear
10:53 AM 57.0 °F - 21.0 °F 25% 29.87 in 10.0 mi East 5.8 mph - N/A   Clear
11:53 AM 60.1 °F - 23.0 °F 24% 29.87 in 10.0 mi SSE 5.8 mph - N/A   Clear
12:53 PM 63.0 °F - 21.0 °F 20% 29.82 in 10.0 mi SE 11.5 mph - N/A   Clear
1:53 PM 66.9 °F - 21.9 °F 18% 29.79 in 10.0 mi Variable 5.8 mph - N/A   Clear
2:53 PM 66.9 °F - 21.0 °F 17% 29.78 in 10.0 mi WNW 21.9 mph 28.8 mph N/A   Clear
3:53 PM 64.9 °F - 21.0 °F 19% 29.78 in 10.0 mi WNW 15.0 mph 23.0 mph N/A   Clear
4:53 PM 64.9 °F - 19.9 °F 18% 29.77 in 10.0 mi WNW 12.7 mph 25.3 mph N/A   Clear
5:53 PM 63.0 °F - 17.1 °F 17% 29.78 in 10.0 mi WNW 16.1 mph 26.5 mph N/A   Clear
6:53 PM 57.9 °F - 19.0 °F 22% 29.82 in 10.0 mi WNW 10.4 mph - N/A   Clear
7:53 PM 54.0 °F - 19.9 °F 26% 29.85 in 10.0 mi NNW 8.1 mph 16.1 mph N/A   Clear
8:53 PM 48.9 °F - 19.9 °F 32% 29.91 in 10.0 mi West 9.2 mph - N/A   Clear
9:53 PM 46.0 °F 41.9 °F 21.9 °F 39% 29.90 in 10.0 mi WSW 8.1 mph - N/A   Clear
10:53 PM 46.0 °F 44.8 °F 21.0 °F 37% 29.89 in 10.0 mi West 3.5 mph - N/A   Clear
11:53 PM 43.0 °F 38.8 °F 21.0 °F 42% 29.89 in 10.0 mi ENE 6.9 mph - N/A   Clear